| time (UTC) | temp C | wind direction | speed KPH | gust KPH | rain 1hr cm | rain 24hr cm | rain mn cm | humidity % | barometer mb |
| 20260506232738 | 17 | 0 | 0.0 | 0.0 | 0.00 | 0.00 | 0.00 | 56 | 1015.1 |
| 20260506230938 | 17 | 292 | 0.0 | 3.2 | 0.00 | 0.00 | 0.00 | 55 | 1015.3 |
| 20260506230038 | 17 | 292 | 0.0 | 3.2 | 0.00 | 0.00 | 0.00 | 55 | 1015.3 |
| 20260506225138 | 17 | 292 | 0.0 | 3.2 | 0.00 | 0.00 | 0.00 | 54 | 1015.3 |
| 20260506224238 | 17 | 292 | 1.6 | 3.2 | 0.00 | 0.00 | 0.00 | 54 | 1015.3 |
| 20260506223338 | 18 | 292 | 0.0 | 3.2 | 0.00 | 0.00 | 0.00 | 55 | 1015.3 |
| 20260506221538 | 18 | 292 | 0.0 | 3.2 | 0.00 | 0.00 | 0.00 | 52 | 1015.4 |
| 20260506220638 | 18 | 292 | 3.2 | 3.2 | 0.00 | 0.00 | 0.00 | 53 | 1015.5 |
| 20260506215738 | 18 | 292 | 0.0 | 3.2 | 0.00 | 0.00 | 0.00 | 54 | 1015.4 |
| 20260506214838 | 18 | 0 | 0.0 | 0.0 | 0.00 | 0.00 | 0.00 | 53 | 1015.5 |
| 20260506213938 | 18 | 0 | 0.0 | 0.0 | 0.00 | 0.00 | 0.00 | 52 | 1015.5 |
| 20260506213038 | 18 | 292 | 0.0 | 3.2 | 0.00 | 0.00 | 0.00 | 52 | 1015.7 |
| 20260506212138 | 18 | 292 | 0.0 | 3.2 | 0.00 | 0.00 | 0.00 | 51 | 1015.7 |
| 20260506211238 | 19 | 292 | 0.0 | 3.2 | 0.00 | 0.00 | 0.00 | 51 | 1015.8 |
| 20260506210338 | 18 | 292 | 0.0 | 3.2 | 0.00 | 0.00 | 0.00 | 51 | 1015.9 |
| 20260506203638 | 19 | 283 | 0.0 | 6.4 | 0.00 | 0.00 | 0.00 | 49 | 1016.0 |
| 20260506200938 | 20 | 262 | 3.2 | 6.4 | 0.00 | 0.00 | 0.00 | 47 | 1015.9 |
| 20260506195138 | 20 | 273 | 4.8 | 9.7 | 0.00 | 0.00 | 0.00 | 44 | 1015.8 |
| 20260506194238 | 20 | 268 | 6.4 | 9.7 | 0.00 | 0.00 | 0.00 | 43 | 1015.7 |
| 20260506193338 | 20 | 270 | 4.8 | 6.4 | 0.00 | 0.00 | 0.00 | 42 | 1015.7 |
| 20260506192438 | 20 | 278 | 3.2 | 6.4 | 0.00 | 0.00 | 0.00 | 42 | 1015.5 |
| 20260506191538 | 21 | 280 | 4.8 | 6.4 | 0.00 | 0.00 | 0.00 | 41 | 1015.4 |
| 20260506190638 | 21 | 277 | 1.6 | 6.4 | 0.00 | 0.00 | 0.00 | 42 | 1015.4 |
| 20260506185738 | 21 | 292 | 3.2 | 6.4 | 0.00 | 0.00 | 0.00 | 42 | 1015.2 |
| 20260506183938 | 21 | 292 | 3.2 | 6.4 | 0.00 | 0.00 | 0.00 | 42 | 1015.1 |
| 20260506183038 | 21 | 290 | 3.2 | 6.4 | 0.00 | 0.00 | 0.00 | 42 | 1015.0 |
| 20260506182138 | 21 | 283 | 3.2 | 6.4 | 0.00 | 0.00 | 0.00 | 42 | 1015.1 |
| 20260506180338 | 21 | 273 | 4.8 | 9.7 | 0.00 | 0.00 | 0.00 | 42 | 1014.9 |
| 20260506174538 | 21 | 259 | 3.2 | 9.7 | 0.00 | 0.00 | 0.00 | 42 | 1014.9 |
| 20260506173638 | 21 | 270 | 4.8 | 6.4 | 0.00 | 0.00 | 0.00 | 42 | 1014.9 |
| 20260506172738 | 21 | 270 | 4.8 | 9.7 | 0.00 | 0.00 | 0.00 | 42 | 1014.7 |
| 20260506171838 | 21 | 269 | 4.8 | 9.7 | 0.00 | 0.00 | 0.00 | 42 | 1014.8 |
| 20260506170038 | 21 | 268 | 6.4 | 11.3 | 0.00 | 0.00 | 0.00 | 42 | 1014.7 |
| 20260506165138 | 22 | 257 | 3.2 | 11.3 | 0.00 | 0.00 | 0.00 | 41 | 1014.8 |
| 20260506164238 | 22 | 265 | 6.4 | 11.3 | 0.00 | 0.00 | 0.00 | 40 | 1014.8 |
| 20260506163338 | 22 | 258 | 6.4 | 12.9 | 0.00 | 0.00 | 0.00 | 39 | 1014.9 |
| 20260506160638 | 23 | 246 | 4.8 | 11.3 | 0.00 | 0.00 | 0.00 | 36 | 1014.9 |
| 20260506155738 | 23 | 243 | 3.2 | 12.9 | 0.00 | 0.00 | 0.00 | 35 | 1015.0 |
| 20260506153938 | 23 | 241 | 6.4 | 14.5 | 0.00 | 0.00 | 0.00 | 35 | 1015.1 |
| 20260506153038 | 23 | 255 | 6.4 | 17.7 | 0.00 | 0.00 | 0.00 | 34 | 1015.3 |
| 20260506152138 | 23 | 238 | 4.8 | 14.5 | 0.00 | 0.00 | 0.00 | 34 | 1015.4 |
| 20260506151238 | 23 | 132 | 6.4 | 14.5 | 0.00 | 0.00 | 0.00 | 35 | 1015.5 |
| 20260506150338 | 23 | 249 | 3.2 | 14.5 | 0.00 | 0.00 | 0.00 | 35 | 1015.6 |
| 20260506145438 | 24 | 254 | 3.2 | 17.7 | 0.00 | 0.00 | 0.00 | 34 | 1015.7 |
| 20260506143638 | 24 | 178 | 4.8 | 14.5 | 0.00 | 0.00 | 0.00 | 35 | 1015.6 |
| 20260506141838 | 24 | 186 | 6.4 | 11.3 | 0.00 | 0.00 | 0.00 | 37 | 1015.6 |
| 20260506140938 | 24 | 253 | 3.2 | 17.7 | 0.00 | 0.00 | 0.00 | 38 | 1015.7 |
| 20260506140038 | 23 | 237 | 4.8 | 17.7 | 0.00 | 0.00 | 0.00 | 40 | 1015.8 |
| 20260506135138 | 23 | 262 | 6.4 | 14.5 | 0.00 | 0.00 | 0.00 | 41 | 1015.8 |
| 20260506134238 | 23 | 229 | 3.2 | 17.7 | 0.00 | 0.00 | 0.00 | 43 | 1015.9 |
| 20260506133338 | 22 | 261 | 14.5 | 20.9 | 0.00 | 0.00 | 0.00 | 46 | 1016.0 |
| 20260506132438 | 23 | 232 | 6.4 | 12.9 | 0.00 | 0.00 | 0.00 | 44 | 1015.9 |
| 20260506131538 | 23 | 225 | 4.8 | 17.7 | 0.00 | 0.00 | 0.00 | 45 | 1016.0 |
| 20260506130638 | 23 | 212 | 4.8 | 14.5 | 0.00 | 0.00 | 0.00 | 42 | 1015.9 |
| 20260506125738 | 23 | 225 | 6.4 | 17.7 | 0.00 | 0.00 | 0.00 | 41 | 1015.9 |
| 20260506124838 | 24 | 120 | 4.8 | 17.7 | 0.00 | 0.00 | 0.00 | 39 | 1016.0 |
| 20260506123938 | 24 | 212 | 6.4 | 17.7 | 0.00 | 0.00 | 0.00 | 38 | 1016.1 |
| 20260506123038 | 23 | 240 | 8.0 | 17.7 | 0.00 | 0.00 | 0.00 | 42 | 1016.1 |
| 20260506121238 | 23 | 239 | 6.4 | 14.5 | 0.00 | 0.00 | 0.00 | 42 | 1016.2 |
| 20260506120338 | 23 | 223 | 6.4 | 17.7 | 0.00 | 0.00 | 0.00 | 45 | 1016.3 |
| 20260506115438 | 23 | 206 | 6.4 | 17.7 | 0.00 | 0.00 | 0.00 | 43 | 1016.4 |
| 20260506114538 | 23 | 177 | 6.4 | 14.5 | 0.00 | 0.00 | 0.00 | 43 | 1016.4 |
| 20260506112738 | 23 | 136 | 6.4 | 17.7 | 0.00 | 0.00 | 0.00 | 47 | 1016.5 |
| 20260506111838 | 23 | 223 | 6.4 | 17.7 | 0.00 | 0.00 | 0.00 | 46 | 1016.5 |
| 20260506110938 | 23 | 112 | 6.4 | 14.5 | 0.00 | 0.00 | 0.00 | 43 | 1016.5 |
| 20260506110038 | 24 | 111 | 6.4 | 17.7 | 0.00 | 0.00 | 0.00 | 38 | 1016.5 |
| 20260506105138 | 25 | 124 | 4.8 | 14.5 | 0.00 | 0.00 | 0.00 | 38 | 1016.6 |
| 20260506104238 | 25 | 227 | 3.2 | 17.7 | 0.00 | 0.00 | 0.00 | 38 | 1016.6 |
| 20260506103338 | 25 | 126 | 6.4 | 17.7 | 0.00 | 0.00 | 0.00 | 38 | 1016.6 |
| 20260506102438 | 24 | 107 | 6.4 | 14.5 | 0.00 | 0.00 | 0.00 | 37 | 1016.6 |
| 20260506100638 | 24 | 124 | 6.4 | 12.9 | 0.00 | 0.00 | 0.00 | 37 | 1016.7 |
| 20260506094838 | 24 | 217 | 6.4 | 14.5 | 0.00 | 0.00 | 0.00 | 42 | 1016.9 |
| 20260506093938 | 24 | 118 | 4.8 | 12.9 | 0.00 | 0.00 | 0.00 | 42 | 1016.9 |
| 20260506093038 | 24 | 231 | 4.8 | 12.9 | 0.00 | 0.00 | 0.00 | 42 | 1016.9 |
| 20260506091238 | 24 | 121 | 6.4 | 9.7 | 0.00 | 0.00 | 0.00 | 42 | 1017.0 |
| 20260506085438 | 24 | 109 | 4.8 | 9.7 | 0.00 | 0.00 | 0.00 | 41 | 1016.9 |
| 20260506084538 | 24 | 242 | 3.2 | 9.7 | 0.00 | 0.00 | 0.00 | 42 | 1016.8 |
| 20260506083638 | 24 | 97 | 3.2 | 9.7 | 0.00 | 0.00 | 0.00 | 40 | 1017.0 |
| 20260506082738 | 24 | 101 | 4.8 | 11.3 | 0.00 | 0.00 | 0.00 | 38 | 1017.1 |
| 20260506081838 | 24 | 100 | 4.8 | 11.3 | 0.00 | 0.00 | 0.00 | 38 | 1017.0 |
| 20260506080938 | 24 | 121 | 3.2 | 12.9 | 0.00 | 0.00 | 0.00 | 38 | 1017.2 |
| 20260506073338 | 23 | 112 | 3.2 | 6.4 | 0.00 | 0.00 | 0.00 | 41 | 1017.0 |
| 20260506072438 | 23 | 234 | 1.6 | 6.4 | 0.00 | 0.00 | 0.00 | 40 | 1016.9 |
| 20260506071538 | 23 | 214 | 1.6 | 6.4 | 0.00 | 0.00 | 0.00 | 40 | 1016.8 |
| 20260506070638 | 22 | 248 | 3.2 | 6.4 | 0.00 | 0.00 | 0.00 | 43 | 1016.8 |
| 20260506062138 | 19 | 266 | 6.4 | 6.4 | 0.00 | 0.00 | 0.00 | 50 | 1017.0 |
| 20260506061238 | 20 | 225 | 3.2 | 3.2 | 0.00 | 0.00 | 0.00 | 50 | 1017.0 |
| 20260506060338 | 20 | 225 | 0.0 | 3.2 | 0.00 | 0.00 | 0.00 | 48 | 1017.0 |
| 20260506050938 | 17 | 265 | 3.2 | 6.4 | 0.00 | 0.00 | 0.00 | 60 | 1017.0 |
| 20260506044238 | 15 | 225 | 1.6 | 3.2 | 0.00 | 0.00 | 0.00 | 64 | 1016.7 |
| 20260506043338 | 15 | 229 | 1.6 | 3.2 | 0.00 | 0.00 | 0.00 | 65 | 1016.7 |
| 20260506042438 | 15 | 225 | 1.6 | 3.2 | 0.00 | 0.00 | 0.00 | 66 | 1016.6 |
| 20260506041538 | 14 | 225 | 0.0 | 3.2 | 0.00 | 0.00 | 0.00 | 67 | 1016.7 |
| 20260506040638 | 14 | 225 | 0.0 | 3.2 | 0.00 | 0.00 | 0.00 | 67 | 1016.6 |
| 20260506035738 | 14 | 225 | 0.0 | 3.2 | 0.00 | 0.00 | 0.00 | 67 | 1016.5 |
| 20260506034838 | 14 | 232 | 1.6 | 3.2 | 0.00 | 0.00 | 0.00 | 67 | 1016.5 |
| 20260506033938 | 14 | 270 | 1.6 | 6.4 | 0.00 | 0.00 | 0.00 | 66 | 1016.3 |
| 20260506033038 | 15 | 266 | 3.2 | 6.4 | 0.00 | 0.00 | 0.00 | 66 | 1016.3 |
| 20260506032138 | 14 | 225 | 0.0 | 3.2 | 0.00 | 0.00 | 0.00 | 66 | 1016.3 |
| 20260506031238 | 14 | 225 | 0.0 | 3.2 | 0.00 | 0.00 | 0.00 | 66 | 1016.3 |
| 20260506025438 | 14 | 225 | 0.0 | 3.2 | 0.00 | 0.00 | 0.00 | 66 | 1016.3 |
| 20260506024538 | 14 | 225 | 0.0 | 3.2 | 0.00 | 0.00 | 0.00 | 66 | 1016.2 |
| 20260506022738 | 14 | 225 | 0.0 | 3.2 | 0.00 | 0.00 | 0.00 | 66 | 1016.3 |
| 20260506021838 | 14 | 225 | 0.0 | 3.2 | 0.00 | 0.00 | 0.00 | 66 | 1016.3 |
| 20260506020938 | 14 | 225 | 0.0 | 3.2 | 0.00 | 0.00 | 0.00 | 66 | 1016.4 |
| 20260506020038 | 15 | 233 | 1.6 | 3.2 | 0.00 | 0.00 | 0.00 | 66 | 1016.4 |
| 20260506015138 | 15 | 248 | 0.0 | 3.2 | 0.00 | 0.00 | 0.00 | 66 | 1016.6 |
| 20260506013338 | 15 | 248 | 0.0 | 3.2 | 0.00 | 0.00 | 0.00 | 66 | 1016.5 |
| 20260506010638 | 15 | 248 | 0.0 | 3.2 | 0.00 | 0.00 | 0.00 | 65 | 1016.5 |
| 20260506005738 | 15 | 0 | 0.0 | 0.0 | 0.00 | 0.00 | 0.00 | 65 | 1016.5 |
| 20260506004838 | 15 | 0 | 0.0 | 0.0 | 0.00 | 0.00 | 0.00 | 64 | 1016.6 |
| 20260506003938 | 16 | 248 | 0.0 | 3.2 | 0.00 | 0.00 | 0.00 | 64 | 1016.6 |
| 20260506003038 | 16 | 248 | 0.0 | 3.2 | 0.00 | 0.00 | 0.00 | 63 | 1016.7 |
| 20260506002138 | 16 | 248 | 0.0 | 3.2 | 0.00 | 0.00 | 0.00 | 62 | 1016.6 |
| 20260506000338 | 16 | 0 | 0.0 | 0.0 | 0.00 | 0.00 | 0.00 | 62 | 1016.6 |
| 20260505235438 | 16 | 248 | 0.0 | 3.2 | 0.00 | 0.00 | 0.00 | 62 | 1016.7 |
| 20260505233638 | 16 | 0 | 0.0 | 0.0 | 0.00 | 0.00 | 0.00 | 62 | 1016.8 |